Regional Weather Roundup
Issued by NWS Wakefield, VA

Home | Current Version | Previous Version | Text Only | Print | Product List | Glossary On
Versions: 1 2 3 4 5 6 7 8 9 10 11 12 13 14 15 16 17 18 19 20 21 22 23 24 25 26 27 28 29 30 31 32 33 34 35 36 37 38 39 40 41 42 43 44 45 46 47 48 49 50
000
ASUS41 KAKQ 300210
RWRAKQ

REGIONAL WEATHER ROUNDUP
NATIONAL WEATHER SERVICE WAKEFIELD VA
1000 PM EDT FRI AUG 29 2014

Note: "fair" indicates few or no clouds below 12,000 feet with no
significant weather and/or obstructions to visibility. * = Denotes
station may not report precipitation (e.g., rain,snow,etc.),
thunder or fog.

VAZ042-051-052>054-056-300300-
NORTHERN VIRGINIA

CITY           SKY/WX    TMP DP  RH WIND       PRES   REMARKS
WASH NATIONAL  PTCLDY    73  55  53 CALM      30.21R
DULLES         PTCLDY    67  55  65 SE6       30.20R
FORT BELVOIR   PTCLDY    64  59  84 MISG      30.21R
QUANTICO       CLEAR     72  58  61 S6        30.21R
FREDERICKSBRG* PTCLDY    71  61  70 CALM      30.20R
STAFFORD*      CLEAR     65  64  94 CALM      30.25R
WARRENTON      MOCLDY    64  64  99 CALM      30.20R
CULPEPER*      MOCLDY   N/A N/A N/A CALM      30.20R
MANASSAS*      CLEAR     68  61  77 CALM      30.20R
LEESBURG*      CLEAR     70  57  64 CALM      30.22R
WINCHESTER     CLEAR     63  59  88 CALM      30.20R
$$

VAZ048-049-060>072-079>083-300300-
CENTRAL AND SOUTH CENTRAL VIRGINIA...AND NORTH CENTRAL NORTH CAROLINA

CITY           SKY/WX    TMP DP  RH WIND       PRES   REMARKS
RICHMOND       CLOUDY    73  61  65 SE8       30.20R
CHESTERFIELD*  CLOUDY    75  55  50 SE8       30.21R
PETERSBURG*    CLOUDY    74  63  69 CALM      30.20R
HANOVER        PTCLDY    72  60  66 E3        30.21R
TAPPAHANNOCK*  CLEAR     65  57  77 CALM      30.21R
CHARLOTTSVILLE PTCLDY    68  64  87 CALM      30.19R
ORANGE*        CLOUDY    64  63  94 CALM      30.21R
LOUISA*        CLOUDY    72  63  73 E5        30.19R
FARMVILLE*     CLOUDY    73  68  83 CALM      30.17R
SOUTH HILL*      N/A     75  72  88 CALM      30.23R
ROANOKE RAPIDS PTCLDY    72  68  88 SE3       30.18R
RALEIGH        PTCLDY    75  70  84 E5        30.17R
$$

VAZ088>098-300300-
SOUTHEAST VIRGINIA

CITY           SKY/WX    TMP DP  RH WIND       PRES   REMARKS
NORFOLK        PTCLDY    73  60  63 SE5       30.20R
VIRGINIA BEACH PTCLDY    70  63  78 SE6       30.19R
NORFOLK NAVAL  PTCLDY    72  61  68 E6        30.21R
WEST POINT*    PTCLDY    69  60  73 E3        30.21R
NEWPORT NEWS   PTCLDY    73  62  68 E3        30.20R
LANGLEY AFB    CLOUDY    75  62  64 VRB3      30.20R
FORT EUSTIS    MOCLDY    72  59  63 E3        30.19R
WILLIAMSBURG*  CLOUDY    75  64  69 SE5       30.21R
FRANKLIN*      CLOUDY    73  63  68 E3        30.20R
WAKEFIELD      CLOUDY    73  63  70 VRB3      30.20R
$$

VAZ020-022-025-037-045-300300-
WESTERN AND SOUTHWEST VIRGINIA

CITY           SKY/WX    TMP DP  RH WIND       PRES   REMARKS
STAUNTON*      CLEAR     70  60  69 CALM      30.23R
HOT SPRINGS VA PTCLDY    61  61 100 S8        30.31S
LYNCHBURG      CLOUDY    73  68  84 S5        30.21R
DANVILLE       CLOUDY    76  70  82 CALM      30.18R
MARTINSVILLE   CLOUDY    72  72  99 CALM      30.22R
ROANOKE        CLOUDY    75  66  73 SE7       30.21R
BLACKSBURG     CLEAR     70  68  94 SE7       30.25S
DUBLIN*        PTCLDY    70  68  94 CALM      30.24R
MARION*        CLOUDY   N/A N/A N/A NE5       30.25R
HILLSVILLE*    MOCLDY    67  66  96 CALM      30.25S
RICHLANDS*     CLOUDY    77  67  71 CALM      30.21R
WISE*          LGT RAIN  70  70 100 SW5       30.23R
ABINGDON*      PTCLDY    73  71  92 CALM      30.18S
$$

MDZ021>025-VAZ099-100-300300-
SOUTHERN MARYLAND AND THE DELMARVA PENINSULA

CITY           SKY/WX    TMP DP  RH WIND       PRES   REMARKS
PATUXENT RIVER MOCLDY    73  63  70 SE13      30.20R
BAY BRIDGE APT   N/A     70  57  64 SE7       30.21R
LEONARDTOWN    CLEAR     68  55  64 SE5       30.22R
DOVER          CLEAR     67  61  81 SE3       30.20R
GEORGETOWN     CLEAR     65  60  84 E6        30.22R
EASTON         NOT AVBL
CAMBRIDGE      CLEAR     66  59  77 SE5       30.21R
SALISBURY      CLEAR     66  60  81 CALM      30.21R
OCEAN CITY     CLEAR     71  60  68 E7        30.21R
WALLOPS ISLAND CLEAR     69  60  73 SE5       30.22R
ACCOMACK*      CLEAR     63  57  82 CALM      30.22R
$$

NCZ012>017-030>032-300300-
EASTERN NORTH CAROLINA

CITY           SKY/WX    TMP DP  RH WIND       PRES   REMARKS
ELIZABETH CITY MOCLDY    74  65  73 E7        30.19R
AHOSKIE*       MOCLDY    72  66  80 CALM      30.19R
EDENTON*       CLOUDY    74  67  80 E8        30.18S
CURRITUCK*     CLOUDY    75  62  64 E3        30.20R
KILL DEVIL HLS MOCLDY    75  65  70 E6        30.17R
MANTEO         MOCLDY    75  65  72 E9G16     30.18R
CAPE HATTERAS  PTCLDY    77  75  93 E9        30.16R
GOLDSBORO      CLEAR     76  75  98 E5        30.14R
WASHINGTON     PTCLDY    73  68  84 NE5       30.18R
GREENVILLE     CLEAR     73  68  83 E5        30.18S
NEW BERN       CLEAR     78  72  81 E5        30.17R
WILMINGTON     CLEAR     77  71  82 S3        30.14R
$$

VAZ048-300300-
ELSEWHERE

CITY           SKY/WX    TMP DP  RH WIND       PRES   REMARKS
HARRISBURG PA  PTCLDY    66  57  72 SE3       30.20R
BALTIMORE      PTCLDY    65  57  75 CALM      30.21R
ANNAPOLIS      CLEAR     73  62  68 SE15      30.20R
ANDREWS AFB    CLEAR     65  58  77 E5        30.21R
WILMINGTON DE  CLEAR     69  60  73 SE8       30.22R
PHILADELPHIA   PTCLDY    68  58  70 SE6       30.23R
WILDWOOD NJ*   CLEAR     66  57  72 E3        30.24R
ATLANTIC CITY  CLEAR     61  58  90 CALM      30.24R
HENDERSON NC   CLOUDY    75  69  82 CALM      30.19R
GREENSBORO     MOCLDY    73  70  90 E6        30.18R
ROCKY MOUNT    CLOUDY    75  68  78 VRB3      30.17R
FAYETTEVILLE   PTCLDY    80  75  84 E8        30.14R
CHARLOTTE      PTCLDY    79  70  74 E8        30.15R
$$

VAZ100-300300-
MARINE

STATION/POSITION TIME  TEMP    WIND        PRES    WAVE   SWELL
                       AIR SEA DIR/SP/G            HT/PER HT/PER
                 (UTC) (F)     (DEG/KT/KT) (MB)    (FT/S) (FT/S)
44066 TX TWR #4  0200   70 72  100/ 10/ 12 1023.6R   4/ 9   3/ 9
CAPE MAY NJ      0200   68 79   70/  2/  3 1023.0R
LEWES DE         0200   71 77  120/  6/  8 1022.9S
15NM E FENWICK I 0200   72 73              1022.6R   3/ 9
OCEAN-CITY-INLET 0200   72 76  110/  5/  7 1022.4R
WACHAPREAGUE VA  0200   72 81  110/  5/  6 1023.1R
THOMAS POINT MD  0200   71 77  130/ 16/ 18 1023.7R
GOOSES REEF MD   0200   73     130/ 16/ 17 1022.8R
COVE POINT MD    0200   72     140/ 16/ 19 1022.6R
SOLOMONS ISLAND  0200      81                N/A
BISHOPS HEAD MD  0200   72 78  110/ 12/ 15 1022.3R
PINEY POINT MD   0200          150/ 16/ 17   N/A
POTOMAC MD       0200   74     150/ 14/ 17 1021.9R
CAMBRIDGE MD     0200   69 78  110/  5/  7 1022.5R
LEWISETTA VA     0200   71 79  150/  8/  9 1022.5R
RAPPAHANNOCK LGT 0200          100/ 11/ 12 1023.4R
STINGRAY PT      0200   74     120/ 14/ 16   N/A
YORK RVR RNG VA  0200   75     130/ 11/ 13 1022.1R
YORKTOWN VA      0200   75 80  130/  7/  9 1022.2R
JAMESTOWN VA     0200   74     140/ 10/ 14   N/A
DOMINION TERM VA 0200   75     110/  9/ 12 1022.6R
KIPTOPEKE VA     0200      81  110/  6/  7   N/A
CHES BAY BRIDGE  0200   75 78   80/ 10/ 12 1021.9S
CAPE HENRY VA    0200   75     100/ 11/ 12 1021.2R
CHESAPEAKE LGHT  0100   74     100/ 12/ 13 1022.6R
WILLOUBY STN VA  0200   74     110/  6/  7 1021.3R
S CRANEY ISL VA  0200          120/  6/ 10 1022.2R
CAPE HENRY BUOY  0200      77                N/A     3/ 8
1ST LANDING BUOY 0200   76     100/ 10/ 12 1021.9S
CAPE CHARLES BUO 0200      76                N/A     3/ 9   2/ 9
OFFSHORE WE BUOY 0200      75                N/A     3/ 9   2/ 9
64NM E OF VA BCH 0200   76 77  100/  8/ 10 1022.1R   3/ 8   3/ 8
DUCK PIER NC     0200   76 78   80/ 14/ 16 1021.4R
44056 DUCK FRF   0200                        N/A     3/ 6
OREGON INLET NC  0200   76 79   50/ 10/ 15 1021.6R
HATTERAS NC      0200   79 82  110/  8/ 12 1021.5R
DIAMOND SHLS NC  0200   78      40/ 12/ 14 1020.9R   4/ 7   3/ 7
CAPE LOOKOUT NC  0100   80      50/  2/  3 1020.5R
$$



USA.gov is the U.S. government's official web portal to all federal, state and local government web resources and services.